Regional Weather Roundup
Issued by NWS

Home | Current Version | Previous Version | Graphics & Text | Print | Product List | Glossary On
Versions: 1 2 3 4 5 6 7 8 9 10 11 12 13 14 15 16 17 18 19 20 21 22 23 24 25 26 27 28 29 30 31 32 33 34 35 36 37 38 39 40 41 42 43 44 45 46 47 48 49 50
000
ASUS44 KMEG 302300
RWRTN
TENNESSEE HOURLY STATE WEATHER ROUNDUP
NATIONAL WEATHER SERVICE MEMPHIS TN
600 PM CDT MON MAY 30 2016

TNZ002-004-019-021-049-052-054-088>092-310000-
WEST TENNESSEE

CITY           SKY/WX    TMP DP  RH WIND       PRES   REMARKS
MEMPHIS INTL   CLOUDY    87  62  43 E3        29.95F
NWS MEMPHIS      N/A     86 N/A N/A MISG        N/A
JACKSON        MOSUNNY   85  62  46 E5        29.97S
DYERSBURG      MOSUNNY   84  61  45 SE5       29.96S
UNION CITY     SUNNY     88  61  40 NE7       29.96F
PARIS          SUNNY     82  61  47 E5        29.98F
LEXINGTON      SUNNY     84  59  42 NE3       29.97S
$$

TNZ008-025-027-028-033-062-065-066-310000-
NORTH MIDDLE TENNESSEE

CITY           SKY/WX    TMP DP  RH WIND       PRES   REMARKS
NASHVILLE      MOSUNNY   87  54  32 N9        29.96F
CLARKSVILLE    SUNNY     85  59  41 N5        29.97F
COOKEVILLE     SUNNY     84  61  45 N5        29.97F
CROSSVILLE     SUNNY     80  56  43 N8        30.02F
$$

TNZ061-075-076-078-094-096-097-310000-
SOUTH MIDDLE TENNESSEE

CITY           SKY/WX    TMP DP  RH WIND       PRES   REMARKS
TULLAHOMA      SUNNY     82  55  39 N9        29.98F
WINCHESTER     SUNNY     84  57  39 N10       29.96F
SHELBYVILLE    SUNNY     88  57  35 N10       29.97F
$$

TNZ017-018-042-046-047-310000-
NORTHEAST TENNESSEE

CITY           SKY/WX    TMP DP  RH WIND       PRES   REMARKS
TRI CITIES     CLOUDY    80  64  58 W9        29.98F
$$

TNZ012-013-036-069-073-074-310000-
CENTRAL EAST TENNESSEE

CITY           SKY/WX    TMP DP  RH WIND       PRES   REMARKS
KNOXVILLE      LGT RAIN  74  62  66 N14       29.96S
OAK RIDGE      PTSUNNY   88  57  34 VRB3      29.96F
GATLINBURG     SUNNY     79  61  53 E8        29.97S
$$

TNZ083-085-099-310000-
SOUTHEAST TENNESSEE

CITY           SKY/WX    TMP DP  RH WIND       PRES   REMARKS
CHATTANOOGA    MOSUNNY   87  62  43 VRB5      29.93F
$$

SKY/WX REPORTED AS FAIR MEANS FEW OR NO CLOUDS BELOW
12 THOUSAND FEET.





USA.gov is the U.S. government's official web portal to all federal, state and local government web resources and services.